GW2166 Weather Reports


Display with metric or nautical units.
time (UTC)temp
F
wind
direction
speed
MPH
gust
MPH
rain 1hr
in
rain 24hr
in
rain mn
in
humidity
%
barometer
mb
20260505152028 49 55 5.0 16.0 0.03 0.63 0.65 85 1011.7
20260505151028 49 13 7.0 15.0 0.01 0.63 0.63 82 1012.2
20260505140505 49 31 10.0 14.0 0.03 0.62 0.62 86 1010.8
20260505124502 50 20 8.0 13.0 0.00 0.59 0.59 80 1010.0
20260505123505 50 0 5.0 9.0 0.00 0.59 0.59 81 1010.0
20260505122502 50 35 3.0 7.0 0.00 0.59 0.59 81 1009.0
20260505122002 50 56 4.0 7.0 0.00 0.59 0.59 81 1008.9
20260505121502 50 42 4.0 9.0 0.00 0.59 0.59 81 1008.8
20260505121004 50 54 5.0 10.0 0.00 0.59 0.59 81 1008.8
20260505120502 50 61 3.0 10.0 0.00 0.59 0.59 81 1008.6
20260505115502 50 3 7.0 11.0 0.00 0.59 0.59 81 1008.6
20260505115003 50 49 4.0 5.0 0.00 0.59 0.59 82 1009.2
20260505114503 50 0 2.0 4.0 0.00 0.59 0.59 81 1009.9
20260505114001 50 351 1.0 6.0 0.00 0.59 0.59 81 1009.6
20260505113502 50 58 2.0 10.0 0.00 0.59 0.59 82 1008.8
20260505113003 50 52 4.0 10.0 0.00 0.59 0.59 81 1008.5
20260505112502 50 52 4.0 9.0 0.00 0.59 0.59 82 1008.4
20260505111002 50 44 6.0 12.0 0.00 0.59 0.59 81 1008.6
20260505110503 50 61 6.0 15.0 0.00 0.59 0.59 81 1008.3
20260505102003 50 76 7.0 12.0 0.00 0.59 0.59 79 1007.7
20260505101503 50 35 6.0 12.0 0.00 0.59 0.59 80 1007.8
20260505101002 50 28 7.0 13.0 0.00 0.59 0.59 79 1008.0
20260505100502 50 31 5.0 13.0 0.00 0.59 0.59 80 1008.2
20260505100002 50 24 6.0 12.0 0.00 0.59 0.59 79 1008.2
20260505095502 51 6 8.0 13.0 0.00 0.59 0.59 79 1008.2
20260505094503 51 30 8.0 14.0 0.00 0.59 0.59 79 1008.1
20260505094003 51 18 11.0 16.0 0.00 0.59 0.59 79 1007.9
20260505093503 51 0 9.0 16.0 0.00 0.59 0.59 79 1007.9
20260505093002 51 31 9.0 16.0 0.00 0.59 0.59 79 1008.2
20260505092503 51 30 7.0 12.0 0.00 0.59 0.59 78 1008.4
20260505091503 51 25 7.0 14.0 0.00 0.59 0.59 78 1008.0
20260505090503 50 23 8.0 14.0 0.00 0.59 0.59 78 1007.9
20260505085002 50 0 9.0 15.0 0.00 0.59 0.59 80 1007.4
20260505084003 50 16 11.0 17.0 0.00 0.59 0.59 78 1006.7
20260505083003 50 24 11.0 24.0 0.03 0.59 0.59 79 1006.8
20260505082002 50 3 13.0 23.0 0.09 0.59 0.59 79 1006.5
20260505081502 50 24 14.0 19.0 0.11 0.59 0.59 80 1006.3
20260505081002 50 14 12.0 19.0 0.13 0.59 0.59 81 1006.4
20260505080502 50 3 13.0 23.0 0.14 0.59 0.59 81 1006.4
20260505080003 50 0 18.0 23.0 0.16 0.43 0.59 82 1006.1
20260505075503 51 10 16.0 27.0 0.17 0.43 0.59 82 1005.6
20260505075002 51 6 14.0 27.0 0.18 0.43 0.59 82 1005.2
20260505074502 51 7 15.0 31.0 0.20 0.43 0.59 83 1004.9
20260505074003 51 51 21.0 37.0 0.21 0.43 0.59 81 1003.6
20260505073502 51 38 23.0 37.0 0.22 0.43 0.58 82 1002.1
20260505072502 53 28 16.0 23.0 0.26 0.43 0.52 83 1005.8
20260505072004 53 13 14.0 22.0 0.30 0.43 0.49 84 1006.8
20260505071502 54 11 11.0 16.0 0.32 0.43 0.47 86 1007.2
20260505071003 54 11 9.0 14.0 0.32 0.43 0.46 87 1008.0
20260505070501 54 20 8.0 13.0 0.34 0.43 0.45 87 1008.5
20260505070002 54 337 4.0 11.0 0.39 0.04 0.43 87 1009.3
20260505065502 54 303 4.0 7.0 0.41 0.04 0.41 86 1009.5
20260505065002 54 20 2.0 14.0 0.41 0.04 0.40 86 1008.1
20260505064502 54 353 6.0 20.0 0.39 0.04 0.39 86 1007.5
20260505064002 54 4 10.0 20.0 0.38 0.04 0.38 86 1006.9
20260505063502 54 6 14.0 20.0 0.36 0.04 0.36 86 1006.3
20260505063002 54 13 13.0 18.0 0.32 0.04 0.28 85 1006.1
20260505062504 55 0 12.0 22.0 0.27 0.04 0.25 84 1006.3
20260505062004 56 0 11.0 32.0 0.20 0.04 0.19 80 1006.1
20260505061503 57 16 18.0 32.0 0.16 0.04 0.16 78 1005.5
20260505061003 57 21 20.0 28.0 0.14 0.04 0.14 81 1005.5
20260505060503 58 348 15.0 26.0 0.11 0.04 0.08 78 1005.7
20260505060002 61 344 12.0 28.0 0.04 0.00 0.04 72 1005.4
20260505055503 64 355 17.0 29.0 0.01 0.00 0.00 61 1004.8
20260505055002 66 0 20.0 31.0 0.00 0.00 0.00 52 1004.4
20260505054504 67 0 23.0 31.0 0.00 0.00 0.00 53 1003.8
20260505054004 68 10 21.0 27.0 0.00 0.00 0.00 55 1003.5
20260505053502 68 13 10.0 19.0 0.00 0.00 0.00 67 1003.7
20260505053002 68 23 6.0 10.0 0.00 0.00 0.00 76 1003.7
20260505052502 67 351 5.0 10.0 0.00 0.00 0.00 80 1003.6
20260505052003 67 327 4.0 11.0 0.00 0.00 0.00 81 1003.5
20260505051502 66 329 6.0 11.0 0.00 0.00 0.00 82 1003.5
20260505050503 65 193 0.0 0.0 0.00 0.00 0.00 82 1002.8
20260505041502 67 193 3.0 7.0 0.00 0.00 0.00 81 1002.8
20260505041003 67 148 3.0 7.0 0.00 0.00 0.00 81 1002.8
20260505040003 67 138 2.0 6.0 0.00 0.00 0.00 81 1003.0
20260505035004 67 171 3.0 9.0 0.00 0.00 0.00 81 1003.2
20260505034459 67 183 3.0 9.0 0.00 0.00 0.00 81 1003.2
20260505034000 67 179 3.0 5.0 0.00 0.00 0.00 81 1003.1
20260505032453 67 172 3.0 5.0 0.00 0.00 0.00 80 1003.1
20260505031953 66 186 3.0 5.0 0.00 0.00 0.00 81 1003.1
20260505031454 67 159 3.0 5.0 0.00 0.00 0.00 80 1003.0
20260505030951 67 175 3.0 6.0 0.00 0.00 0.00 80 1002.9
20260505025951 67 193 3.0 5.0 0.00 0.00 0.00 77 1002.9
20260505025448 67 221 0.0 3.0 0.00 0.00 0.00 77 1002.8
20260505024451 68 221 0.0 2.0 0.00 0.00 0.00 75 1002.6
20260505023441 69 221 1.0 3.0 0.00 0.00 0.00 72 1002.5
20260505022942 69 221 1.0 2.0 0.00 0.00 0.00 72 1002.4
20260505022442 69 221 1.0 2.0 0.00 0.00 0.00 71 1002.3
20260505021941 70 221 1.0 2.0 0.00 0.00 0.00 70 1002.4
20260505021440 71 221 0.0 2.0 0.00 0.00 0.00 69 1002.3
20260505020940 71 221 1.0 2.0 0.00 0.00 0.00 68 1002.2
20260505020437 72 221 1.0 3.0 0.00 0.00 0.00 68 1002.2
20260505015938 72 221 1.0 3.0 0.00 0.00 0.00 67 1002.1
20260505015439 73 221 1.0 5.0 0.00 0.00 0.00 66 1002.1
20260505014937 73 221 1.0 5.0 0.00 0.00 0.00 66 1002.0
20260505013934 74 190 3.0 6.0 0.00 0.00 0.00 64 1001.9
20260505012934 75 231 2.0 3.0 0.00 0.00 0.00 63 1001.8
20260505012432 76 231 1.0 5.0 0.00 0.00 0.00 63 1001.7
20260505011932 76 241 2.0 5.0 0.00 0.00 0.00 62 1001.5
20260505011432 76 227 1.0 3.0 0.00 0.00 0.00 61 1001.5
20260505010431 77 223 1.0 6.0 0.00 0.00 0.00 59 1001.3
20260505005931 78 228 2.0 6.0 0.00 0.00 0.00 57 1001.3
20260505005431 78 192 2.0 5.0 0.00 0.00 0.00 58 1001.3
20260505003931 78 214 4.0 9.0 0.00 0.00 0.00 55 1001.2
20260505003432 79 231 4.0 13.0 0.00 0.00 0.00 55 1001.2
20260505002431 79 209 6.0 16.0 0.00 0.00 0.00 54 1001.1
20260505001931 79 223 7.0 17.0 0.00 0.00 0.00 54 1000.9
20260505001431 80 206 8.0 17.0 0.00 0.00 0.00 55 1000.9
20260505000932 80 190 4.0 7.0 0.00 0.00 0.00 54 1001.0
20260504235930 80 219 4.0 9.0 0.00 0.00 0.00 53 1001.0
20260504234930 81 197 4.0 9.0 0.00 0.00 0.00 53 1001.1
20260504234429 81 202 2.0 6.0 0.00 0.00 0.00 54 1001.1
20260504233929 81 214 2.0 6.0 0.00 0.00 0.00 51 1001.1
20260504233428 82 196 4.0 11.0 0.00 0.00 0.00 50 1001.1
20260504232925 82 244 4.0 11.0 0.00 0.00 0.00 50 1001.1
20260504232426 82 252 4.0 10.0 0.00 0.00 0.00 50 1001.0
20260504231926 82 217 5.0 10.0 0.00 0.00 0.00 49 1001.1
20260504231426 83 199 5.0 9.0 0.00 0.00 0.00 48 1001.0
20260504230425 83 196 4.0 9.0 0.00 0.00 0.00 50 1001.1
20260504225922 83 175 4.0 7.0 0.00 0.00 0.00 50 1001.0
20260504225422 83 223 3.0 7.0 0.00 0.00 0.00 52 1001.0
20260504224922 83 206 3.0 7.0 0.00 0.00 0.00 48 1001.1
20260504224420 82 233 2.0 7.0 0.00 0.00 0.00 50 1001.1
20260504223920 82 269 3.0 9.0 0.00 0.00 0.00 49 1001.2
20260504222920 82 241 3.0 7.0 0.00 0.00 0.00 48 1001.0
20260504222413 82 186 4.0 9.0 0.00 0.00 0.00 47 1001.1
20260504221913 82 207 3.0 9.0 0.00 0.00 0.00 49 1001.1
20260504221411 82 199 4.0 10.0 0.00 0.00 0.00 46 1001.1
20260504220912 82 197 5.0 10.0 0.00 0.00 0.00 47 1001.2
20260504220411 82 258 3.0 10.0 0.00 0.00 0.00 52 1001.2
20260504215409 82 266 3.0 7.0 0.00 0.00 0.00 50 1001.2
20260504213908 81 234 5.0 9.0 0.00 0.00 0.00 46 1001.4
20260504213408 81 209 4.0 10.0 0.00 0.00 0.00 48 1001.4
20260504212905 82 219 6.0 14.0 0.00 0.00 0.00 46 1001.5
20260504212405 82 248 8.0 14.0 0.00 0.00 0.00 45 1001.6
20260504211903 82 309 6.0 10.0 0.00 0.00 0.00 46 1001.6
20260504210903 82 186 5.0 13.0 0.00 0.00 0.00 47 1001.7
20260504210402 82 228 7.0 13.0 0.00 0.00 0.00 46 1001.7
20260504205901 82 234 9.0 13.0 0.00 0.00 0.00 44 1001.7
20260504205402 82 228 5.0 13.0 0.00 0.00 0.00 46 1001.6
20260504204902 83 220 6.0 13.0 0.00 0.00 0.00 47 1001.9
20260504204401 83 234 6.0 15.0 0.00 0.00 0.00 48 1001.9
20260504203901 82 227 9.0 15.0 0.00 0.00 0.00 47 1001.9
20260504203401 82 212 7.0 15.0 0.00 0.00 0.00 47 1002.0
20260504202901 82 244 7.0 13.0 0.00 0.00 0.00 45 1001.9
20260504202401 82 220 7.0 13.0 0.00 0.00 0.00 46 1002.1
20260504201901 81 199 8.0 14.0 0.00 0.00 0.00 45 1002.2
20260504201400 81 214 6.0 16.0 0.00 0.00 0.00 47 1002.3
20260504200900 82 230 7.0 16.0 0.00 0.00 0.00 47 1002.2
20260504195401 82 247 10.0 15.0 0.00 0.00 0.00 46 1002.2
20260504194900 83 172 7.0 15.0 0.00 0.00 0.00 46 1002.2
20260504193900 83 240 6.0 12.0 0.00 0.00 0.00 46 1002.1
20260504193359 83 241 4.0 14.0 0.00 0.00 0.00 45 1002.0
20260504192900 83 227 6.0 14.0 0.00 0.00 0.00 48 1002.1
20260504192359 83 266 6.0 17.0 0.00 0.00 0.00 45 1002.1
20260504191859 83 217 10.0 17.0 0.00 0.00 0.00 44 1002.1
20260504191359 84 252 7.0 18.0 0.00 0.00 0.00 45 1002.1
20260504190900 84 151 10.0 18.0 0.00 0.00 0.00 45 1002.3
20260504190359 84 224 6.0 17.0 0.00 0.00 0.00 49 1002.3
20260504185859 84 176 7.0 14.0 0.00 0.00 0.00 45 1002.4
20260504184858 83 183 8.0 15.0 0.00 0.00 0.00 46 1002.3
20260504183858 82 227 7.0 16.0 0.00 0.00 0.00 49 1002.5
20260504183358 82 213 5.0 15.0 0.00 0.00 0.00 46 1002.4
20260504182859 82 199 5.0 15.0 0.00 0.00 0.00 50 1002.5
20260504182359 81 235 4.0 12.0 0.00 0.00 0.00 54 1002.6
20260504181858 81 137 6.0 17.0 0.00 0.00 0.00 50 1002.6
20260504180856 80 238 6.0 14.0 0.00 0.00 0.00 50 1002.6
20260504180358 80 230 7.0 14.0 0.00 0.00 0.00 49 1002.7
20260504175858 80 258 8.0 14.0 0.00 0.00 0.00 48 1002.6
20260504175358 80 195 8.0 17.0 0.00 0.00 0.00 52 1002.7
20260504174858 79 197 10.0 17.0 0.00 0.00 0.00 52 1002.8
20260504174357 79 274 8.0 15.0 0.00 0.00 0.00 51 1002.9
20260504173857 78 254 8.0 15.0 0.00 0.00 0.00 56 1002.8
20260504173357 78 237 5.0 16.0 0.00 0.00 0.00 55 1002.8
20260504172856 77 207 9.0 16.0 0.00 0.00 0.00 54 1003.2
20260504171857 76 221 5.0 17.0 0.00 0.00 0.00 54 1003.0
20260504170856 76 178 6.0 15.0 0.00 0.00 0.00 53 1003.0
20260504170356 76 199 6.0 14.0 0.00 0.00 0.00 52 1003.0
20260504160355 75 219 8.0 16.0 0.00 0.00 0.00 54 1003.3